COSMOS 1150

导读 | 星芒AI

COSMOS 1150 是苏联于1980年2月1日发射的一颗军用卫星,用于电子侦察和信号情报收集。该卫星由质子-K运载火箭从拜科努尔航天发射场发射升空,进入近地轨道。COSMOS 1150 属于“宇宙”系列,是苏联情报卫星项目的一部分,旨在监视全球通信和雷达信号。尽管其具体任务细节未公开,但该卫星在冷战期间对苏联的军事和情报能力起到了重要作用。

基本信息
目录编号:
11667
目录名称:
COSMOS 1150
国际标识:
1980-003A
轨道中心:
EARTH
卫星名称:
COSMOS 1150
卫星全名:
--
卫星状态:
在轨 (已飞行16725 天)
发射日期:
1980-01-14 UTC
国别 :
俄罗斯(独联体) (CIS)
星等 :
--
轨道信息
数据来源 国际轨道数据 AOE轨道数据
星历时间 2025-10-28T21:27:10+0800
17小时前
查看轨道信息
2025-10-27T04:00:00+0800
2天前
查看轨道信息
半长轴 7364.609km 7364.609km
偏心率 0.0031537 0.00316
轨道倾角 82.958° 82.958°
近地点辐角 206.613° 211.750°
升交点赤经 349.543° 350.817°
平近点角 309.348° 47.705°
近地点 963.248km 963.201km
远地点 1009.7km 1009.747km
周期 104.830分钟 104.830分钟
每日圈数 13.73657 13.73657
详细信息
使用方式:
暂无
2D轨道图
3D轨道图
轨道高度分析图
轨道倾角分析图
轨道综合分析图
查看轨道综合分析图